Flag Weather past 2 weeks in Savannah, Georgia, U.S.A.

Now
55 °F

Clear.


Feels Like: 55 °F
Forecast: 56 / 70 °F
Wind: 3 mph from North

Location: Hunter U. S. Army Airfield

Current Time: Oct 31, 2014 at 9:08:57 AM

Latest Report: Oct 31, 2014 at 7:58 AM


Visibility: 10 mi

Pressure: 29.89 "Hg

Humidity: 95%

Dew point: 54 °F

Location of SavannahLocation

Historic Weather in Savannah — Graph

°F

Savannah temperature yesterday

Maximum temperature yesterday: 75 °F (at 3:58 PM)
Minimum temperature yesterday: 62 °F (at 11:58 PM)
Average temperature yesterday: 68 °F

Past Weeks' High & Low Weather Summary

 TemperatureHumidityPressure
High87 °F (Oct 27, 3:58 PM)100% (Oct 21, 4:58 AM)30.18 "Hg (Oct 21, 4:58 AM)
Low46 °F (Oct 25, 6:58 AM)32% (Oct 27, 4:58 PM)29.81 "Hg (Oct 18, 3:58 PM)
Average65 °F75%29.99 "Hg
* Reported Oct 16 7:58 AM — Oct 31 7:58 AM, Savannah, Weather by CustomWeather, © 2014

Note: Actual official high and low records may vary slightly from our data, if they occured in-between our weather recording intervals... More about our weather records

Advertising

Savannah weather history for previous 24 hours

 ConditionsComfort  
Time TempWeatherWind HumidityBarometerVisibility
7:58 AM
Oct 31
55 °FClear.3 mph95%29.89 "Hg10 mi
6:58 AM56 °FClear.5 mph94%29.87 "Hg10 mi
5:58 AM57 °FClear.5 mph92%29.87 "Hg10 mi
4:58 AM57 °FClear.6 mph92%29.87 "Hg10 mi
3:58 AM58 °FClear.5 mph93%29.88 "Hg10 mi
2:58 AM59 °FClear.6 mph93%29.88 "Hg10 mi
1:58 AM60 °FClear.5 mph92%29.90 "Hg10 mi
12:58 AM61 °FClear.3 mph89%29.91 "Hg10 mi
11:58 PM
Oct 30
62 °FClear.3 mph87%29.92 "Hg10 mi
10:58 PM63 °FClear.3 mph88%29.92 "Hg10 mi
9:58 PM64 °FClear.6 mph87%29.92 "Hg10 mi
8:58 PM66 °FPassing clouds.5 mph81%29.93 "Hg10 mi
7:58 PM66 °FPassing clouds.5 mph81%29.91 "Hg10 mi
6:58 PM67 °FPassing clouds.5 mph80%29.91 "Hg10 mi
5:58 PM70 °FPartly sunny.7 mph73%29.91 "Hg10 mi
4:58 PM74 °FPartly sunny.5 mph55%29.90 "Hg10 mi
3:58 PM75 °FPassing clouds.2 mph53%29.91 "Hg10 mi
2:58 PM74 °FPassing clouds.6 mph61%29.92 "Hg10 mi
1:58 PM71 °FPassing clouds.6 mph69%29.95 "Hg10 mi
12:58 PM71 °FScattered clouds.6 mph73%29.97 "Hg10 mi
11:58 AM70 °FPartly sunny.7 mph77%29.98 "Hg10 mi
10:58 AM68 °FOvercast.8 mph81%29.98 "Hg10 mi
9:58 AM66 °FOvercast.7 mph90%29.99 "Hg10 mi
Weather by CustomWeather, © 2014

See weather overviewHow to use our weather pages